Location: Unspecified
(0.0000°N, 0.0000°E)
Time: 17:20:21
(UTC+00:00)

Hubble Space Telescope - Pass Details

Date: 21 March 2019
Orbit: 537 x 540 km, 28.5° (Epoch: 23 May)

Event Time Altitude Azimuth Distance (km) Brightness Sun altitude
Exits shadow 03:51:00 11° 51° (NE) 1,718 3.9 -34.1°
Drops below altitude 10° 03:51:21 10° 56° (NE) 1,777 4.0 -34.0°
Sets 03:54:42 0° 84° (E) 2,668 5.4 -33.2°
